Retour au catalogue

STARLINK-36154

ActifCommunicationsVLEO
NORAD 66939·PAYLOAD·🇺🇸 United States

Lancé Dec 7, 2025 depuis Vandenberg Space Force Base

Loading…

Prochains Passages (prochaines 24 heures)

TLE

FraisSource: CelesTrak SupGP

Époque: Sep 15, 2026, 04:18 UTC

1 66939C 25286Q   26258.17965278 -.00023425  00000+0 -69222-3 0  2583
2 66939  53.1574 194.4377 0001317  85.8479 246.9907 15.34396457    13

Suivez STARLINK-36154 en temps réel avec AllMySat

Download on the App Store